This demonstration page uses our WeatherBlox Daily Observations layout. Learn more.

Left ArrowRight Arrow

Hourly Observations for December 15, 2020

Temp ( °F °C ) Dew Point ( °F °C ) Humidity (%) Winds ( mph kmh ) Pressure ( in mb ) Visibility ( mi km ) Precip ( " mm )
12:51 am 00:51 Clear 42 5.6 21 -6.1 43 43 NW 8 13 29.93 1014 10 16.0934 0 0
1:51 am 01:51 Clear 40 4.4 21 -6.1 47 47 NW 9 15 29.94 1014 10 16.0934 0 0
2:51 am 02:51 Clear 38 3.3 20 -6.7 48 48 NW 9 15 29.95 1014 10 16.0934 0 0
3:51 am 03:51 Clear 33 0.6 21 -6.1 61 61 NW 8 13 29.98 1015 10 16.0934 0 0
4:51 am 04:51 Clear 37 2.8 21 -6.1 52 52 NW 8 13 29.99 1016 10 16.0934 0 0
5:51 am 05:51 Clear 35 1.7 21 -6.1 57 57 VRB 3 6 30.03 1017 10 16.0934 0 0
6:51 am 06:51 Clear 32 0 21 -6.1 64 64 NW 6 9 30.06 1018 10 16.0934 0 0
7:51 am 07:51 Sunny 38 3.3 23 -5 55 55 NW 9 15 30.08 1019 10 16.0934 0 0
8:51 am 08:51 Sunny 42 5.6 23 -5 47 47 NW 14 22 30.1 1019 10 16.0934 0 0
9:51 am 09:51 Sunny 46 7.8 23 -5 40 40 NW 15 24 30.11 1020 10 16.0934 0 0
10:51 am 10:51 Sunny 49 9.4 22 -5.6 35 35 NW 16 26 30.11 1020 10 16.0934 0 0
11:51 am 11:51 Sunny 50 10 21 -6.1 32 32 NW 10 17 30.09 1019 10 16.0934 0 0
12:51 pm 12:51 Sunny 52 11.1 20 -6.7 28 28 WNW 8 13 30.06 1018 10 16.0934 0 0
1:51 pm 13:51 Sunny 53 11.7 20 -6.7 27 27 WNW 9 15 30.04 1017 10 16.0934 0 0
2:51 pm 14:51 Sunny 55 12.8 20 -6.7 25 25 WNW 13 20 30.02 1017 10 16.0934 0 0
3:51 pm 15:51 Sunny 55 12.8 18 -7.8 23 23 WNW 13 20 30.04 1017 10 16.0934 0 0
4:51 pm 16:51 Sunny 53 11.7 18 -7.8 25 25 WNW 12 19 30.06 1018 10 16.0934 0 0
5:51 pm 17:51 Clear 49 9.4 19 -7.2 31 31 NW 8 13 30.08 1019 10 16.0934 0 0
6:51 pm 18:51 Clear 46 7.8 18 -7.8 32 32 NW 9 15 30.12 1020 10 16.0934 0 0
7:51 pm 19:51 Clear 40 4.4 19 -7.2 43 43 Calm 30.14 1021 10 16.0934 0 0
8:51 pm 20:51 Clear 41 5 18 -7.8 39 39 N 7 11 30.14 1021 10 16.0934 0 0
9:51 pm 21:51 Clear 42 5.6 15 -9.4 33 33 Calm 30.15 1021 10 16.0934 0 0
10:51 pm 22:51 Clear 33 0.6 19 -7.2 56 56 Calm 30.18 1022 10 16.0934 0 0
11:51 pm 23:51 Clear 34 1.1 18 -7.8 52 52 Calm 30.18 1022 10 16.0934 0 0

Powered by AerisWeather